Location: Tucson
(32.2217°N, 110.9265°W)
Time: 01:35:38
(UTC-07:00)

LightSail 2 - Pass Details

Date: 09 December 2019
Orbit: 704 x 719 km, 24.0° (Epoch: 24 January)

Event Time Altitude Azimuth Distance (km) Brightness Sun altitude
Rises 19:59:41 0° 253° (WSW) 3,090 9.5 -33.2°
Reaches altitude 10° 20:04:04 10° 218° (SW) 2,164 8.1 -34.1°
Maximum altitude 20:05:27 11° 202° (SSW) 2,092 7.8 -34.4°
Enters shadow 20:05:42 11° 199° (SSW) 2,094 7.8 -34.4°
